FENGYUN 1C DEB, 30047

Orbit data source: Space-Track

FENGYUN 1C DEB, 30047 is space debris in SSO originally from a launch on Mon, 10 May 1999 UTC launched from the Taiyaun Space Center, China (TSC). Fengyun 1C debris stems from the Chinese weather satellite Fengyun-1C, which was intentionally destroyed by a Chinese anti-satellite missile in 2007. This event dramatically increased the amount of space debris, with thousands of trackable fragments posing hazards to satellites and human spaceflight. The Fengyun 1C debris cloud has become a focal point in discussions about space sustainability and the need for international regulations to prevent the creation of new debris.

Loading next visibility...
Identifier
30047, 1999-025NY
Orbit
SSO
Country
Flag of CNCN / PRC
Related business
Manufacturer
Unknown
Mission
Spacecraft
Bus & Motor
Unknown
Mass
Unknown
Launch date (UTC)
1999-05-10 (27 years ago)
Launch vehicle
Unknown
Launch site
Taiyaun Space Center, China (TSC)
Object type
Payload
Rocket body
Debris
Shape & HBR
Unknown shape, 0.1 m
Radar Cross Section
Small (<0.1 m²)

Expand to show TLE details & history
Last TLE update: 1 day ago

TLE from 1 day ago
0 FENGYUN 1C DEB
1 30047U 99025NY  26062.38725833  .00001179  00000-0  86127-3 0  9999
2 30047  99.9273 230.3629 0126328 108.8692 281.6356 13.94550832970407
Epoch: 2026-03-03T09:17Z
TLE epoch observation values (Epoch: 2026-03-03T09:17:39.119Z)
Latitude
28.65294°
Longitude
-75.67602°
Altitude
898.736 km
Speed
7.414 km/s
True Right ascension
14h 59m 36s
True Declination
28° 30' 41"
Sunlit
Object was in partial shadow at epoch
Visualization orbit readout
Latitude
Unknown
Longitude
Unknown
Altitude
Unknown
Speed
Unknown
Apparent Right ascension
Unknown
Apparent Declination
Unknown
Sunlit
N/A
Visualization observer readout
Local Sidereal Time
12:38:29
Azimuth
Unknown
Elevation
Unknown
Doppler factor
Unknown
Orbital elements
Apogee altitude
1,002.049 km
Perigee altitude
817.91 km
Semi-major axis
7,288.117 km
Eccentricity
0.01263
Inclination
99.9273°
RAAN
230.3629°
Arg. of periapsis
108.8692°
True anomaly
280.21335°
Mean anomaly
281.6356°
Eccentric anomaly
280.92491°
Mean motion
3.48835 °/min
Orbital period
103.2 mins
BSTAR
0.00086127
Loading maneuver chart data...
Computing Atmospheric mass density...
Loading historical data...
Loading historical data...
Loading historical data...
Loading historical data...
Loading historical data...
Loading historical data...
Loading historical data...

Documentation

Showing up to 5 results
|